"TOA5","AWS1","CR1000","7964","CR1000.Std.14","CPU:AWS1_114.CR1","64363","TBL110"
"TIMESTAMP","RECORD","Wind_spd_WVc(1)","Wind_spd_WVc(2)","Air_Temp_Avg","Humidity_Avg","SW_upper_Wm2_Avg","Rain_Tot","Press_Avg","Issui_Tot","Depth_cm","SR50A_Raw","Quality","Ground_Temp_Avg(1)","Ground_Temp_Avg(2)","SW_lower_Wm2_Avg","Albedo_Avg","SWC_per(1)","SWC_per(2)","Period(1)","Period(2)"
"TS","RN","","","","","","","","","","","","","","","","","","",""
"","","WVc","WVc","Avg","Avg","Avg","Tot","Avg","Tot","Smp","Smp","Smp","Avg","Avg","Avg","Avg","Smp","Smp","Smp","Smp"
"2017-12-08 00:00:00",317869,0.407,113.6,-1.493,78.62,0,0,861.0059,0,24.03,2.948,194,2.95,3.917,0.6332857,0,51.66,58.97,33.7,35.44
"2017-12-08 00:10:00",317870,0.171,155.7,-1.479,78.78,0,0,860.8732,0,23.83,2.95,176,2.942,3.92,0.5384825,0,51.6,58.97,33.69,35.44
"2017-12-08 00:20:00",317871,0.323,129.5,-1.484,79.17,0,0,860.675,0,23.81,2.949,189,2.938,3.91,0.6939598,0,51.66,59.03,33.7,35.45
"2017-12-08 00:30:00",317872,0.136,103.5,-1.3,78.5,0,0,860.5085,0,23.89,2.948,176,2.934,3.889,0.5877802,0,51.66,58.97,33.7,35.44
"2017-12-08 00:40:00",317873,0.136,121.9,-1.296,78.54,0,0,860.5085,0,23.79,2.949,175,2.931,3.897,0.5081455,0,51.66,58.97,33.7,35.44
"2017-12-08 00:50:00",317874,0.564,125.2,-1.56,80.1,0,0,860.4516,0,23.98,2.949,180,2.93,3.893,0.2882019,0,51.6,58.97,33.69,35.44
"2017-12-08 01:00:00",317875,0.503,157.9,-1.585,79.81,0,0,860.3546,0,23.88,2.949,175,2.931,3.903,0.4247186,0,51.66,58.97,33.7,35.44
"2017-12-08 01:10:00",317876,0.491,106.4,-1.493,80.3,0,0,860.5591,0,23.88,2.949,176,2.931,3.893,0.3299153,0,51.66,58.97,33.7,35.44
"2017-12-08 01:20:00",317877,0.871,139.9,-1.583,80.8,0,0,860.7109,0,23.82,2.951,200,2.929,3.883,0.3299153,0,51.66,58.97,33.7,35.44
"2017-12-08 01:30:00",317878,1.046,139.3,-1.945,82.9,0,0,860.5675,0,23.81,2.953,196,2.93,3.888,0.02275278,0,51.66,58.97,33.7,35.44
"2017-12-08 01:40:00",317879,0.758,123.6,-1.935,84.1,0,0,860.4916,0,23.57,2.954,182,2.931,3.893,0.3109547,0,51.66,58.97,33.7,35.44
"2017-12-08 01:50:00",317880,0.605,135.5,-1.772,84.1,0,0,860.1797,0,23.45,2.955,190,2.93,3.889,0.4550557,0,51.66,58.97,33.7,35.44
"2017-12-08 02:00:00",317881,0.498,137.9,-1.758,84.5,0,0,860.0048,0,23.45,2.955,202,2.933,3.892,0.436095,0,51.66,58.97,33.7,35.44
"2017-12-08 02:10:00",317882,0.676,105.3,-1.764,85.5,0,0,860.0153,0,23.45,2.955,203,2.935,3.886,0.3602524,0,51.66,58.97,33.7,35.44
"2017-12-08 02:20:00",317883,0.429,135.5,-1.715,86.2,0,0,860.0027,0,23.38,2.955,195,2.93,3.881,0.3678366,0,51.66,58.97,33.7,35.44
"2017-12-08 02:30:00",317884,0.412,85.7,-1.719,86.2,0,0,859.9479,0,23.47,2.955,203,2.931,3.885,0.2237357,0,51.66,58.97,33.7,35.44
"2017-12-08 02:40:00",317885,0.363,122.7,-1.771,86,0,0,859.5938,0,23.47,2.955,202,2.93,3.884,0.2275278,0,51.6,58.97,33.69,35.44
"2017-12-08 02:50:00",317886,0.392,127.6,-1.745,86.3,0,0,859.4568,0,23.42,2.956,203,2.93,3.885,0.2275278,0,51.66,58.97,33.7,35.44
"2017-12-08 03:00:00",317887,0.429,152.4,-1.813,86.7,0,0,859.267,0,23.37,2.956,197,2.931,3.892,0.2237357,0,51.6,58.97,33.69,35.44
"2017-12-08 03:10:00",317888,0.183,84.4,-1.719,86.3,0,0,859.2776,0,23.37,2.956,201,2.931,3.888,0.2199436,0,51.66,58.97,33.7,35.44
"2017-12-08 03:20:00",317889,0.386,62.05,-1.76,86,0,0,859.246,0,23.28,2.956,203,2.931,3.887,0.2199436,0,51.66,58.97,33.7,35.44
"2017-12-08 03:30:00",317890,0.298,81,-1.632,85.7,0,0,859.1617,0,23.18,2.957,200,2.932,3.893,0.2275278,0,51.66,58.97,33.7,35.44
"2017-12-08 03:40:00",317891,0.251,104.9,-1.714,86.3,0,0,859.1237,0,23.27,2.957,194,2.934,3.906,0.2275278,0,51.66,58.97,33.7,35.44
"2017-12-08 03:50:00",317892,0.167,134.4,-1.773,87.8,0,0,859.1848,0,23.37,2.956,194,2.939,3.911,0.1251403,0,51.6,58.97,33.69,35.44
"2017-12-08 04:00:00",317893,0.142,71.48,-1.898,90.1,0,0,859.0499,0,23.22,2.958,204,2.936,3.909,0,0,51.66,58.97,33.7,35.44
"2017-12-08 04:10:00",317894,0.262,114.7,-2.005,90.5,0,0,858.991,0,23.21,2.959,202,2.934,3.905,0,0,51.66,58.97,33.7,35.44
"2017-12-08 04:20:00",317895,0.346,133,-1.979,90.2,0,0,858.9277,0,23.21,2.959,203,2.935,3.911,0.007584261,0,51.66,58.97,33.7,35.44
"2017-12-08 04:30:00",317896,0.301,130.7,-1.978,90.5,0,0,858.9424,0,23.17,2.959,205,2.935,3.904,0.1403088,0,51.66,58.97,33.7,35.44
"2017-12-08 04:40:00",317897,0.439,132.9,-1.979,90.8,0,0,858.7486,0,23.17,2.959,206,2.93,3.906,0.1630616,0,51.66,58.97,33.7,35.44
"2017-12-08 04:50:00",317898,0.489,138.6,-1.979,90.8,0,0,858.7169,0,23.17,2.959,204,2.931,3.904,0.1858144,0,51.66,58.97,33.7,35.44
"2017-12-08 05:00:00",317899,0.497,140.2,-1.984,91.5,0,0,858.4935,0,23.07,2.96,208,2.932,3.895,0.1971908,0,51.66,58.97,33.7,35.44
"2017-12-08 05:10:00",317900,0.275,137.3,-1.99,91.9,0,0,858.4852,0,23.07,2.96,185,2.932,3.899,0.1516852,0,51.6,58.97,33.69,35.44
"2017-12-08 05:20:00",317901,0.2,111.7,-1.975,92,0,0,858.3566,0,23.19,2.959,185,2.931,3.896,0.087219,0,51.6,58.97,33.69,35.44
"2017-12-08 05:30:00",317902,0.241,57.33,-1.992,92.2,0,0,858.1901,0,23.17,2.959,184,2.93,3.901,0.1668537,0,51.6,58.97,33.69,35.44
"2017-12-08 05:40:00",317903,0.155,12.97,-1.93,91.8,0,0,857.9982,0,23.17,2.959,187,2.931,3.899,0.1896065,0,51.6,58.97,33.69,35.44
"2017-12-08 05:50:00",317904,0,0,-1.935,92.1,0,0,857.9962,0,23.61,2.955,196,2.933,3.899,0.04929769,0,51.66,58.97,33.7,35.44
"2017-12-08 06:00:00",317905,0,0,-2.013,92.7,0,0,857.9645,0,23.82,2.952,195,2.934,3.89,0,0,51.66,58.97,33.7,35.44
"2017-12-08 06:10:00",317906,0,0,-1.955,93.4,0,0,857.8907,0,23.57,2.955,172,2.934,3.895,0,0,51.66,58.97,33.7,35.44
"2017-12-08 06:20:00",317907,0.04,18.57,-1.964,93.7,0,0,857.9793,0,23.57,2.955,171,2.932,3.896,0.00379213,0,51.6,58.97,33.69,35.44
"2017-12-08 06:30:00",317908,0,0,-2.059,95.1,0,0,858.0003,0,23.61,2.956,172,2.934,3.904,0.007584261,0,51.6,58.97,33.69,35.44
"2017-12-08 06:40:00",317909,0.057,67.71,-2.153,97.7,0,0,858.0299,0,23.46,2.957,173,2.936,3.915,0,0,51.66,58.97,33.7,35.44
"2017-12-08 06:50:00",317910,0.011,313.5,-2.231,99.9,0.1494528,0,857.9835,0,23.51,2.957,177,2.94,3.918,0.06446622,0.233,51.66,58.97,33.7,35.44
"2017-12-08 07:00:00",317911,0.016,322.9,-2.303,100,0.8691862,0,857.9793,0,23.75,2.955,194,2.938,3.917,0.553651,0.631,51.66,58.97,33.7,35.44
"2017-12-08 07:10:00",317912,0.006,331,-2.334,100,1.451266,0,858.0509,0,23.75,2.955,173,2.933,3.913,1.012499,0.7,51.66,58.97,33.7,35.44
"2017-12-08 07:20:00",317913,0.036,323.1,-2.384,100,4.23974,0,858.0425,0,23.75,2.955,195,2.936,3.913,3.147468,0.738,51.66,58.97,33.7,35.44
"2017-12-08 07:30:00",317914,0.019,322.9,-2.316,100,4.636971,0,857.9793,0,23.65,2.956,197,2.938,3.913,3.54185,0.764,51.6,58.97,33.69,35.44
"2017-12-08 07:40:00",317915,0.04,319.6,-2.412,100,8.109782,0.5,857.9793,0,24,2.953,196,2.932,3.894,7.019233,0.853,51.66,58.97,33.7,35.44
"2017-12-08 07:50:00",317916,0.038,16.84,-2.327,100,9.372265,0,857.9603,0,24.05,2.952,202,2.931,3.892,9.0594,0.965,51.66,58.97,33.7,35.44
"2017-12-08 08:00:00",317917,0.008,24.22,-2.229,100,20.64808,0,857.9519,0,23.06,2.961,229,2.935,3.899,21.6341,1.045,51.6,59.03,33.69,35.45
"2017-12-08 08:10:00",317918,0,0,-2.145,100,24.21529,0,857.8022,0,24.2,2.95,196,2.939,3.881,26.05952,1.076,51.66,58.97,33.7,35.44
"2017-12-08 08:20:00",317919,0,0,-2.028,100,19.08277,0,857.7264,0,24.36,2.947,200,2.935,3.885,20.54197,1.077,51.66,58.97,33.7,35.44
"2017-12-08 08:30:00",317920,0.001,32.48,-1.873,98,24.81703,0,857.6969,0,24.84,2.941,206,2.948,3.907,26.91275,1.084,51.6,58.97,33.69,35.44
"2017-12-08 08:40:00",317921,0.008,43.03,-1.773,96,22.71289,0,857.7264,0,24.91,2.941,208,3.002,3.923,24.84225,1.094,51.6,58.97,33.69,35.44
"2017-12-08 08:50:00",317922,0.125,81.5,-1.749,95.5,29.1079,0,857.7264,0,25.12,2.938,226,3.038,3.96,31.89561,1.095,51.66,58.97,33.7,35.44
"2017-12-08 09:00:00",317923,0.048,35.09,-1.63,95.4,27.90048,0,857.7221,0,25.93,2.929,291,3.072,3.962,31.323,1.123,51.66,59.03,33.7,35.45
"2017-12-08 09:10:00",317924,0.196,322.7,-1.743,95.9,23.65287,0,857.5851,0,24.82,2.942,222,3.082,3.966,26.32876,1.113,51.66,58.97,33.7,35.44
"2017-12-08 09:20:00",317925,0.25,293.4,-2.014,98.1,18.70913,0.5,857.4735,0.5,24.76,2.943,204,3.089,3.966,20.81879,1.114,51.6,58.97,33.69,35.44
"2017-12-08 09:30:00",317926,0.135,299.2,-2.036,99.9,16.08978,0,857.6041,0,25.46,2.936,209,3.072,3.966,18.96824,1.18,51.6,58.97,33.69,35.44
"2017-12-08 09:40:00",317927,0.065,299.5,-2.021,100,17.65116,0,857.5072,0,25.61,2.935,196,3.085,3.965,22.33944,1.266,51.6,58.97,33.69,35.44
"2017-12-08 09:50:00",317928,0.035,335.8,-2.067,100,13.56874,0,857.4819,0,26.37,2.928,254,3.086,3.966,17.85335,1.317,51.66,58.97,33.7,35.44
"2017-12-08 10:00:00",317929,0.071,295.6,-2.128,100,13.06139,0.5,857.4166,0.5,25.4,2.938,192,3.091,3.966,17.54998,1.343,51.66,58.97,33.7,35.44
"2017-12-08 10:10:00",317930,0.071,318.2,-2.356,100,14.87842,0,857.3318,0,24.6,2.947,178,3.091,3.966,20.17793,1.356,51.66,59.03,33.7,35.45
"2017-12-08 10:20:00",317931,0.27,3.976,-2.35,100,14.07216,0,857.2563,0,25.15,2.941,181,3.095,3.966,19.83284,1.41,51.66,58.97,33.7,35.44
"2017-12-08 10:30:00",317932,0.245,10.29,-2.346,100,15.04361,0,857.0077,0,25.45,2.938,191,3.083,3.966,23.07511,1.534,51.66,59.03,33.7,35.45
"2017-12-08 10:40:00",317933,0.184,47.72,-2.309,100,16.77018,0.5,857.0519,0.5,26.2,2.93,198,3.078,3.965,27.273,1.625,51.66,58.97,33.7,35.44
"2017-12-08 10:50:00",317934,0.032,42.88,-2.207,100,15.57849,0,856.9803,0,26.79,2.924,221,3.096,3.966,26.23775,1.682,51.66,58.97,33.7,35.44
"2017-12-08 11:00:00",317935,0.262,30.57,-2.136,100,26.41382,0,856.8421,0,26.5,2.926,203,3.099,3.966,44.87228,1.698,51.6,58.97,33.69,35.44
"2017-12-08 11:10:00",317936,0.217,359,-2.177,100,19.72777,0,856.5585,0,26.4,2.928,201,3.101,3.966,32.7185,1.656,51.66,58.97,33.7,35.44
"2017-12-08 11:20:00",317937,0.094,321.1,-2.271,100,13.03779,0,856.5366,0,26.62,2.926,206,3.098,3.966,21.22834,1.627,51.66,59.03,33.7,35.45
"2017-12-08 11:30:00",317938,0.332,356,-2.313,100,35.55797,0,856.4616,0,26.6,2.926,211,3.101,3.966,61.80035,1.732,51.66,59.03,33.7,35.45
"2017-12-08 11:40:00",317939,0.021,301.2,-2.027,100,25.13167,0,856.4576,0,26.2,2.929,203,3.101,3.966,43.79911,1.743,51.66,58.97,33.7,35.44
"2017-12-08 11:50:00",317940,0.01,276.3,-2.01,100,12.30626,0,856.2847,0,24.11,2.95,356,3.101,3.966,20.50784,1.664,51.6,58.97,33.69,35.44
"2017-12-08 12:00:00",317941,0.284,85.1,-2.153,100,20.08961,0,856.1579,0,25.75,2.934,261,3.101,3.966,34.58044,1.718,51.6,58.97,33.69,35.44
"2017-12-08 12:10:00",317942,0.938,157.6,-2.142,100,38.73188,0,855.2975,0.5,25.66,2.934,203,3.099,3.966,68.75132,1.767,51.66,58.97,33.7,35.44
"2017-12-08 12:20:00",317943,0.659,182.1,-1.935,97,47.1445,0,855.4119,0,25.71,2.933,210,3.101,3.966,86.11928,1.827,51.66,58.97,33.7,35.44
"2017-12-08 12:30:00",317944,0.644,208.7,-1.945,89.8,49.05592,0,855.3784,0,25.77,2.932,201,3.101,3.965,90.24512,1.839,51.6,59.03,33.69,35.45
"2017-12-08 12:40:00",317945,0.844,176.7,-1.837,87.7,44.14758,0,855.1574,0,25.91,2.931,203,3.101,3.966,80.82167,1.829,51.6,58.97,33.69,35.44
"2017-12-08 12:50:00",317946,0.393,213,-1.702,86.5,42.8143,0,855.0893,0,25.97,2.929,209,3.101,3.963,78.84976,1.841,51.66,59.03,33.7,35.45
"2017-12-08 13:00:00",317947,0.498,212,-1.634,82.8,43.22333,0,854.7437,0,26.12,2.928,208,3.101,3.95,79.79021,1.846,51.66,59.03,33.7,35.45
"2017-12-08 13:10:00",317948,0.65,180.8,-1.563,84.2,37.7329,0.5,854.4764,0,25.93,2.929,201,3.099,3.943,68.58826,1.815,51.66,59.03,33.7,35.45
"2017-12-08 13:20:00",317949,0.33,209.7,-1.625,82.8,22.59092,0,854.5967,0,25.97,2.929,202,3.1,3.956,40.78048,1.805,51.66,58.97,33.7,35.44
"2017-12-08 13:30:00",317950,0.14,170.9,-1.579,82.3,31.81206,0,854.5041,0,25.89,2.929,208,3.087,3.938,59.51805,1.872,51.66,59.03,33.7,35.45
"2017-12-08 13:40:00",317951,0.27,178.8,-1.494,81.3,41.4383,0,854.4212,0,25.87,2.929,202,3.078,3.914,76.10562,1.837,51.66,58.97,33.7,35.44
"2017-12-08 13:50:00",317952,0.113,194.8,-1.324,80.3,41.70031,0,854.4877,0,25.85,2.929,203,3.048,3.89,78.2945,1.877,51.6,58.97,33.69,35.44
"2017-12-08 14:00:00",317953,0.151,331.2,-1.475,81.2,42.17381,0,854.3515,0,25.81,2.93,208,2.988,3.85,78.82858,1.869,51.66,59.03,33.7,35.45
"2017-12-08 14:10:00",317954,0.45,188.7,-1.504,81,38.73775,0,854.2353,0,25.84,2.93,201,2.959,3.82,70.4285,1.818,51.66,59.03,33.7,35.45
"2017-12-08 14:20:00",317955,0.192,287.7,-1.5,82.2,31.77255,0,854.1046,0,25.7,2.931,202,2.944,3.806,58.8244,1.853,51.66,58.97,33.7,35.44
"2017-12-08 14:30:00",317956,0.137,319.4,-1.582,89,17.05953,0,854.0456,0,25.67,2.933,205,2.958,3.823,31.26341,1.824,51.66,59.03,33.7,35.45
"2017-12-08 14:40:00",317957,0.302,295.7,-2.07,92.1,9.781923,0,854.0898,0,26.35,2.928,234,2.995,3.832,15.92157,1.628,51.66,59.03,33.7,35.45
"2017-12-08 14:50:00",317958,0.237,317.8,-2.216,92.8,8.051983,0,854.0961,0,26.32,2.929,174,3.011,3.853,13.85932,1.722,51.66,59.03,33.7,35.45
"2017-12-08 15:00:00",317959,0.031,340.2,-2.166,95.2,5.724489,0,854.2373,0,26.84,2.924,192,3.013,3.869,10.1254,1.767,51.66,59.03,33.7,35.45
"2017-12-08 15:10:00",317960,0.25,2.726,-2.396,96.1,6.719232,0,854.1088,0.5,26.76,2.926,194,3.014,3.879,12.53266,1.866,51.66,58.97,33.7,35.44
"2017-12-08 15:20:00",317961,0.499,30.8,-2.492,97.2,4.737664,0,854.1046,0,27.87,2.916,200,3.014,3.879,8.703857,1.838,51.66,58.97,33.7,35.44
"2017-12-08 15:30:00",317962,0.281,270,-3.015,96.5,5.461165,0,854.3174,0.5,28.13,2.917,194,3.018,3.883,10.2393,1.874,51.66,59.03,33.7,35.45
"2017-12-08 15:40:00",317963,0.212,303.8,-3.445,96.5,4.91867,0.5,854.3511,0.5,28.82,2.911,192,3.015,3.887,9.75802,1.986,51.66,59.03,33.7,35.45
"2017-12-08 15:50:00",317964,0.235,247.6,-3.723,96.5,4.242558,0,854.3785,0,29.15,2.909,192,3.019,3.897,8.090281,1.909,51.66,59.03,33.7,35.45
"2017-12-08 16:00:00",317965,0.283,20.47,-3.714,96.8,3.712078,0.5,854.5976,0.5,29.14,2.909,170,3.005,3.918,7.909011,2.13,51.66,59.03,33.7,35.45
"2017-12-08 16:10:00",317966,0.601,279.2,-3.886,95.6,2.752773,0,854.6275,0,29.67,2.905,177,2.953,3.905,5.183263,1.886,51.6,59.03,33.69,35.45
"2017-12-08 16:20:00",317967,0.746,303.8,-4.136,94.5,2.827663,0.5,854.6316,0.5,29.85,2.904,187,2.925,3.892,5.278382,1.868,51.6,59.03,33.69,35.45
"2017-12-08 16:30:00",317968,0.788,294.4,-4.331,93.6,1.69901,0,854.4501,0,30.14,2.902,193,2.95,3.92,3.177745,1.858,51.6,59.03,33.69,35.45
"2017-12-08 16:40:00",317969,0.619,298.9,-4.404,93.7,0.4758864,0,854.943,0,30.13,2.903,171,2.983,3.947,0.6294896,1.312,51.66,59.03,33.7,35.45
"2017-12-08 16:50:00",317970,0.832,332.7,-4.548,94.7,0.2359778,0.5,855.12,0.5,30.28,2.901,193,2.976,3.932,0.04929758,0.201,51.66,59.03,33.7,35.45
"2017-12-08 17:00:00",317971,0.504,359.4,-4.555,95.9,0.08259234,0,855.3096,0,29.98,2.905,172,2.989,3.907,0,0,51.66,59.03,33.7,35.45
"2017-12-08 17:10:00",317972,0.766,316.3,-4.749,96.4,0.2005814,0.5,855.5531,0,30.1,2.905,173,3.008,3.901,0,0,51.66,59.03,33.7,35.45
"2017-12-08 17:20:00",317973,0.947,289.4,-4.868,94.6,0.25171,0,855.5554,0,30.32,2.903,180,3.014,3.885,0,0,51.66,59.03,33.7,35.45
"2017-12-08 17:30:00",317974,0.858,30.25,-4.964,92.5,0.1376539,0,855.9454,0,30.02,2.906,186,3.014,3.884,0,0,51.66,59.03,33.7,35.45
"2017-12-08 17:40:00",317975,0.803,300.9,-5.025,92.4,0,0,855.9791,0,29.72,2.91,211,3.014,3.879,0,0,51.66,59.03,33.7,35.45
"2017-12-08 17:50:00",317976,0.833,290.6,-5.127,91.6,0,0,855.9769,0,30.01,2.908,182,3.014,3.879,0,0,51.66,59.03,33.7,35.45
"2017-12-08 18:00:00",317977,1.378,286.9,-5.25,91.4,0,0.5,856.1161,0,30.16,2.906,170,3.014,3.879,0,0,51.66,59.03,33.7,35.45
"2017-12-08 18:10:00",317978,1.122,281.4,-5.221,90.7,0,0,856.1561,0.5,30.2,2.906,178,3.013,3.879,0,0,51.66,59.03,33.7,35.45
"2017-12-08 18:20:00",317979,1.229,275.5,-5.261,89.8,0,0,856.2151,0,30.16,2.906,186,3.003,3.881,0,0,51.66,59.03,33.7,35.45
"2017-12-08 18:30:00",317980,0.846,277.8,-5.252,90.4,0,0,856.3058,0,30.05,2.908,170,2.959,3.903,0.01137639,0,51.66,59.03,33.7,35.45
"2017-12-08 18:40:00",317981,0.674,252.7,-5.324,90.3,0,0,856.2299,0,30.08,2.908,170,2.939,3.92,0,0,51.66,59.03,33.7,35.45
"2017-12-08 18:50:00",317982,0.663,264.6,-5.396,90.3,0,0,856.3543,0,29.9,2.91,169,2.946,3.921,0,0,51.66,59.03,33.7,35.45
"2017-12-08 19:00:00",317983,0.435,263.4,-5.449,91.6,0,0,856.4659,0,29.95,2.91,170,2.965,3.922,0,0,51.66,59.03,33.7,35.45
"2017-12-08 19:10:00",317984,0.898,319.6,-5.617,92.8,0,0,856.6304,0,29.94,2.911,170,2.996,3.915,0,0,51.66,59.03,33.7,35.45
"2017-12-08 19:20:00",317985,0.491,321.6,-5.741,95.8,0,0,856.8643,0,29.78,2.913,170,3.02,3.918,0,0,51.66,59.03,33.7,35.45
"2017-12-08 19:30:00",317986,0.358,350.2,-5.757,97.1,0,0,856.9677,0,29.68,2.914,178,3.038,3.905,0,0,51.66,59.03,33.7,35.45
"2017-12-08 19:40:00",317987,0.17,275.9,-5.76,97,0,0,856.9677,0,29.67,2.914,179,3.044,3.883,0,0,51.66,59.03,33.7,35.45
"2017-12-08 19:50:00",317988,0.675,348.2,-5.88,96.4,0.1494718,0,856.9866,0,29.67,2.915,190,3.046,3.913,0,0,51.66,59.03,33.7,35.45
"2017-12-08 20:00:00",317989,0.256,191.4,-5.816,96.2,0.003933544,0,857.2079,0,29.57,2.915,191,3.054,3.914,0.03792747,0,51.66,59.03,33.7,35.45
"2017-12-08 20:10:00",317990,0.384,343.4,-5.793,95.7,0,0,857.2753,0,29.51,2.916,191,3.059,3.928,0.03034242,0,51.66,59.03,33.7,35.45
"2017-12-08 20:20:00",317991,0.137,303.3,-5.852,95.8,0,0,857.4304,0,29.5,2.917,191,3.063,3.931,0,0,51.66,59.03,33.7,35.45
"2017-12-08 20:30:00",317992,0.443,274.3,-5.925,96.1,0.0747459,0,857.4764,0,29.35,2.919,174,3.071,3.944,0,0,51.66,59.03,33.7,35.45
"2017-12-08 20:40:00",317993,0.663,283.8,-6.041,95.4,0.1967003,0,857.4824,0,29.29,2.92,171,3.048,3.948,0,0,51.66,59.03,33.7,35.45
"2017-12-08 20:50:00",317994,0.198,177.4,-6.043,95.2,0.01967007,0,857.5551,0,29.19,2.921,175,3.042,3.953,0,0,51.66,59.03,33.7,35.45
"2017-12-08 21:00:00",317995,0.494,317.5,-6.187,94.8,0.003934151,0,857.7468,0,29.09,2.923,176,3.027,3.956,0,0,51.66,59.03,33.7,35.45
"2017-12-08 21:10:00",317996,0.464,250.9,-6.256,95.6,0,0,857.773,0,29.11,2.922,179,3.019,3.961,0,0,51.66,59.03,33.7,35.45
"2017-12-08 21:20:00",317997,0.301,264.2,-6.389,94.7,0.09048832,0,857.774,0,28.98,2.925,192,3.026,3.966,0,0,51.66,59.03,33.7,35.45
"2017-12-08 21:30:00",317998,0.153,69.56,-6.598,93.7,0,0,857.7858,0,29.02,2.925,171,3.018,3.966,0,0,51.66,59.03,33.7,35.45
"2017-12-08 21:40:00",317999,0.163,358.7,-6.522,95.2,0,0,857.7969,0,28.98,2.925,179,3.017,3.967,0.250366,0,51.66,59.03,33.7,35.45
"2017-12-08 21:50:00",318000,0.33,336.9,-6.446,96.4,0,0,858.0476,0,28.95,2.925,175,3.017,3.963,0.4021032,0,51.66,59.03,33.7,35.45
"2017-12-08 22:00:00",318001,0.61,306.1,-6.503,96.1,0,0,858.0803,0,28.97,2.926,187,3.017,3.95,0.1934648,0,51.66,59.03,33.7,35.45
"2017-12-08 22:10:00",318002,0.468,297.7,-6.685,95.5,0.02360588,0,858.1012,0,29.02,2.926,179,3.017,3.927,0,0,51.71,59.03,33.72,35.45
"2017-12-08 22:20:00",318003,0.645,287.1,-6.721,94.7,0,0,858.226,0,28.97,2.927,176,3.017,3.924,0,0,51.66,59.03,33.7,35.45
"2017-12-08 22:30:00",318004,0.441,250.8,-6.823,94.1,0,0,858.068,0,28.77,2.929,187,3.017,3.92,0,0,51.71,59.03,33.72,35.45
"2017-12-08 22:40:00",318005,0.39,278.6,-6.886,93.5,0,0,858.068,0,28.84,2.929,188,3.017,3.901,0,0,51.66,59.03,33.7,35.45
"2017-12-08 22:50:00",318006,0.578,242.4,-6.959,93.4,0,0,858.068,0,28.89,2.928,192,3.02,3.892,0,0,51.71,59.03,33.72,35.45
"2017-12-08 23:00:00",318007,0.727,284.2,-6.852,92.9,0,0,858.068,0,29.26,2.924,180,3.021,3.891,0.06069483,0,51.66,59.03,33.7,35.45
"2017-12-08 23:10:00",318008,1.024,273.7,-6.87,92.1,0,0,858.0659,0,29.21,2.925,184,3.022,3.886,0,0,51.66,59.03,33.7,35.45
"2017-12-08 23:20:00",318009,0.468,254,-6.856,92.4,0,0,857.9963,0,29.19,2.925,189,3.016,3.886,0,0,51.66,59.03,33.7,35.45
"2017-12-08 23:30:00",318010,0.36,226.6,-6.83,92.1,0,0,858.0595,0,29.07,2.926,189,3.019,3.888,0,0,51.66,59.03,33.7,35.45
"2017-12-08 23:40:00",318011,0.278,337.3,-6.896,91.9,0,0,858.321,0,29.16,2.926,180,3.005,3.891,0,0,51.66,59.03,33.7,35.45
"2017-12-08 23:50:00",318012,1.015,288.8,-6.972,91.4,0,0,858.3168,0,29.11,2.927,176,2.994,3.891,0,0,51.66,59.03,33.7,35.45
